Weather History for KSAF - November, 2011

Change the Weather History Date:

Thursday, November 10, 2011

  Actual Average Record
Temperature  
Mean Temperature 36 °F -  
Max Temperature 50 °F 52 °F 70 °F (2005)
Min Temperature 23 °F 21 °F 10 °F (1977)
Degree Days  
Heating Degree Days 28    
Moisture  
Dew Point 17 °F    
Average Humidity 50    
Maximum Humidity 74    
Minimum Humidity 28    
Precipitation  
Precipitation 0.00 in - - ()
Sea Level Pressure  
Sea Level Pressure 30.37 in    
Wind  
Wind Speed 9 mph (NNW)    
Max Wind Speed 14 mph    
Max Gust Speed -    
Visibility 10 miles    
Events      
Averages and records for this station are not official NWS values.
T = Trace of Precipitation, MM = Missing Value Source: NWS Daily Summary

Daily Weather History Graph

Daily Weather History Graph

Search for Another Location

Airport or City:

Trip Planner

Search our weather history database for the weather conditions in past years. The results will help you decide how hot, cold, wet, or windy it might be!

Date:

Astronomy

Nov. 10, 2011 Rise Set
Actual Time 6:34 AM MST 5:01 PM MST
Civil Twilight 6:08 AM MST 5:28 PM MST
Nautical Twilight 5:37 AM MST 5:58 PM MST
Astronomical Twilight 5:07 AM MST 6:28 PM MST
Moon 4:52 PM MST (11/10) 6:28 AM MST (11/10)
Length of Visible Light 11h 20m
Length of Day
10h 26m
Full, 100% of the Moon is Illuminated
Nov 10
Full
Nov 10
Full
Nov 18
Last Quarter
Nov 24
New
Dec 2
First Quarter

Hourly Weather History & Observations

Time (MST) Temp. Windchill Dew Point Humidity Pressure Visibility Wind Dir Wind Speed Gust Speed Precip Events Conditions
12:53 AM 26.1 °F 17.6 °F 17.1 °F 69% 30.46 in 10.0 mi North 8.1 mph - N/A   Clear
2:53 AM 26.1 °F 15.6 °F 16.0 °F 66% 30.43 in 10.0 mi North 11.5 mph - N/A   Clear
3:53 AM 25.0 °F 13.1 °F 16.0 °F 69% 30.43 in 10.0 mi North 13.8 mph - N/A   Clear
4:53 AM 23.0 °F 10.6 °F 16.0 °F 74% 30.46 in 10.0 mi North 13.8 mph - N/A   Clear
6:53 AM 24.1 °F 13.1 °F 16.0 °F 71% 30.53 in 10.0 mi North 11.5 mph - N/A   Clear
8:53 AM 33.1 °F 23.4 °F 16.0 °F 50% 30.52 in 10.0 mi North 13.8 mph - N/A   Clear
9:53 AM 39.0 °F 31.8 °F 15.1 °F 38% 30.49 in 10.0 mi North 11.5 mph - N/A   Clear
10:53 AM 43.0 °F 37.2 °F 15.1 °F 32% 30.47 in 10.0 mi North 10.4 mph - N/A   Clear
11:53 AM 46.0 °F 42.5 °F 15.1 °F 29% 30.41 in 10.0 mi North 6.9 mph - N/A   Clear
12:53 PM 46.9 °F - 18.0 °F 32% 30.35 in 10.0 mi SW 11.5 mph - N/A   Clear
2:53 PM 50.0 °F - 18.0 °F 28% 30.30 in 10.0 mi WNW 9.2 mph - N/A   Clear
3:53 PM 48.0 °F - 19.9 °F 33% 30.29 in 10.0 mi WSW 6.9 mph - N/A   Clear
4:53 PM 43.0 °F - 17.1 °F 35% 30.31 in 10.0 mi North - - N/A   Clear
5:53 PM 42.1 °F - 17.1 °F 37% 30.31 in 10.0 mi Calm Calm - N/A   Clear
6:53 PM 37.0 °F 34.5 °F 17.1 °F 44% 30.32 in 10.0 mi North 3.5 mph - N/A   Clear
7:53 PM 39.0 °F - 15.1 °F 38% 30.30 in 10.0 mi Calm Calm - N/A   Clear
8:53 PM 28.0 °F 24.2 °F 19.0 °F 69% 30.32 in 10.0 mi North 3.5 mph - N/A   Clear
9:53 PM 30.9 °F 25.2 °F 16.0 °F 54% 30.28 in 10.0 mi NNW 5.8 mph - N/A   Clear
10:53 PM 28.9 °F 22.8 °F 16.0 °F 58% 30.26 in 10.0 mi NNW 5.8 mph - N/A   Clear
11:53 PM 26.1 °F 19.4 °F 18.0 °F 71% 30.24 in 10.0 mi North 5.8 mph - N/A   Clear